owner,sensor,date,latitude,longitude,vertical_datum,wind_speed,wind_to_direction,wind_speed_of_gust,qcFlag 
TABS,ioos:station:wmo:42044:1,2005-09-01T00:09:00Z,26.1914,-97.0507,0.0,4.895232374,146.2452975,7.12,'11111222,11111222,11111222' 
TABS,ioos:station:wmo:42044:1,2005-09-01T00:39:00Z,26.1914,-97.0507,0.0,5.166139758,142.708952,7.17,'11111222,11111222,11111222' 
TABS,ioos:station:wmo:42044:1,2005-09-01T01:09:00Z,26.1914,-97.0507,0.0,4.501244272,151.6133102,6.5,'11111222,11111222,11111222' 
TABS,ioos:station:wmo:42044:1,2005-09-01T01:39:00Z,26.1914,-97.0507,0.0,5.164348943,148.2183446,7.23,'11111222,11111222,11111222' 
TABS,ioos:station:wmo:42044:1,2005-09-01T02:09:00Z,26.1914,-97.0507,0.0,6.07960525,145.9965626,8.29,'11111222,11111222,11111222' 
TABS,ioos:station:wmo:42044:1,2005-09-01T02:39:00Z,26.1914,-97.0507,0.0,6.306013003,147.6963395,8.93,'11111222,11111222,11111222' 
TABS,ioos:station:wmo:42044:1,2005-09-01T03:09:00Z,26.1914,-97.0507,0.0,6.585089217,139.8048206,9.03,'11111222,11111222,11111222' 
TABS,ioos:station:wmo:42044:1,2005-09-01T03:39:00Z,26.1914,-97.0507,0.0,6.222539674,135.0003157,8.77,'11111222,11111222,11111222' 
TABS,ioos:station:wmo:42044:1,2005-09-01T04:09:00Z,26.1914,-97.0507,0.0,6.175111335,141.3115115,8.77,'11111222,11111222,11111222' 
TABS,ioos:station:wmo:42044:1,2005-09-01T04:39:00Z,26.1914,-97.0507,0.0,6.786434999,148.5587117,9.51,'11111222,11111222,11111222' 
TABS,ioos:station:wmo:42044:1,2005-09-01T05:09:00Z,26.1914,-97.0507,0.0,6.691225598,155.7334788,9.39,'11111222,11111222,11111222' 
TABS,ioos:station:wmo:42044:1,2005-09-01T05:39:00Z,26.1914,-97.0507,0.0,6.096441585,157.9370704,9.16,'11111222,11111222,11111222' 
TABS,ioos:station:wmo:42044:1,2005-09-01T06:09:00Z,26.1914,-97.0507,0.0,6.128523476,161.7426901,8.92,'11111222,11111222,11111222' 
TABS,ioos:station:wmo:42044:1,2005-09-01T06:39:00Z,26.1914,-97.0507,0.0,5.891638142,163.5338753,8.24,'11111222,11111222,11111222' 
TABS,ioos:station:wmo:42044:1,2005-09-01T07:09:00Z,26.1914,-97.0507,0.0,6.470123646,163.3858248,9.74,'11111222,11111222,11111222' 
TABS,ioos:station:wmo:42044:1,2005-09-01T07:39:00Z,26.1914,-97.0507,0.0,5.791165686,174.0533613,8.02,'11111222,11111222,11111222' 
TABS,ioos:station:wmo:42044:1,2005-09-01T08:09:00Z,26.1914,-97.0507,0.0,5.879676862,174.241149,8.53,'11111222,11111222,11111222' 
TABS,ioos:station:wmo:42044:1,2005-09-01T08:39:00Z,26.1914,-97.0507,0.0,5.546827922,170.4530028,7.73,'11111222,11111222,11111222' 
TABS,ioos:station:wmo:42044:1,2005-09-01T09:09:00Z,26.1914,-97.0507,0.0,4.935271016,170.6715109,7.41,'11111222,11111222,11111222' 
TABS,ioos:station:wmo:42044:1,2005-09-01T09:39:00Z,26.1914,-97.0507,0.0,4.111471756,181.5333046,6.4,'11111222,11111222,11111222' 
TABS,ioos:station:wmo:42044:1,2005-09-01T10:09:00Z,26.1914,-97.0507,0.0,7.83462188,160.3857871,14.01,'11111222,11111222,11111222' 
TABS,ioos:station:wmo:42044:1,2005-09-01T10:39:00Z,26.1914,-97.0507,0.0,3.810354314,262.7630949,6.26,'11111222,11111222,11111222' 
TABS,ioos:station:wmo:42044:1,2005-09-01T11:09:00Z,26.1914,-97.0507,0.0,3.641112467,334.6312187,5.8,'11111222,11111222,11111222' 
TABS,ioos:station:wmo:42044:1,2005-09-01T11:39:00Z,26.1914,-97.0507,0.0,3.789841685,344.3866963,6.55,'11111222,11111222,11111222' 
TABS,ioos:station:wmo:42044:1,2005-09-01T12:09:00Z,26.1914,-97.0507,0.0,2.008108563,342.0160213,4.22,'11111222,11111222,11111222' 
TABS,ioos:station:wmo:42044:1,2005-09-01T12:39:00Z,26.1914,-97.0507,0.0,2.086767836,280.771429,4.01,'11111222,11111222,11111222' 
TABS,ioos:station:wmo:42044:1,2005-09-01T13:09:00Z,26.1914,-97.0507,0.0,0.50009999,101.5350146,2.0,'11111222,11111222,11111222' 
TABS,ioos:station:wmo:42044:1,2005-09-01T13:39:00Z,26.1914,-97.0507,0.0,0.561426754,355.9141823,3.26,'11111222,11111222,11111222' 
TABS,ioos:station:wmo:42044:1,2005-09-01T14:09:00Z,26.1914,-97.0507,0.0,1.154512884,24.56690341,3.12,'11111222,11111222,11111222' 
TABS,ioos:station:wmo:42044:1,2005-09-01T14:39:00Z,26.1914,-97.0507,0.0,1.640121947,52.43107491,3.37,'11111222,11111222,11111222' 
TABS,ioos:station:wmo:42044:1,2005-09-01T15:09:00Z,26.1914,-97.0507,0.0,2.277718156,73.15580992,3.71,'11111222,11111222,11111222' 
TABS,ioos:station:wmo:42044:1,2005-09-01T15:39:00Z,26.1914,-97.0507,0.0,2.774166542,84.20679613,4.06,'11111222,11111222,11111222' 
TABS,ioos:station:wmo:42044:1,2005-09-01T16:09:00Z,26.1914,-97.0507,0.0,3.287582699,77.5275103,4.68,'11111222,11111222,11111222' 
TABS,ioos:station:wmo:42044:1,2005-09-01T16:39:00Z,26.1914,-97.0507,0.0,2.88951553,77.40627858,4.26,'11111222,11111222,11111222' 
TABS,ioos:station:wmo:42044:1,2005-09-01T17:09:00Z,26.1914,-97.0507,0.0,3.620497203,89.05001445,5.4,'11111222,11111222,11111222' 
TABS,ioos:station:wmo:42044:1,2005-09-01T17:39:00Z,26.1914,-97.0507,0.0,4.369862698,96.70258219,5.93,'11111222,11111222,11111222' 
TABS,ioos:station:wmo:42044:1,2005-09-01T18:09:00Z,26.1914,-97.0507,0.0,4.629092784,95.20604355,6.37,'11111222,11111222,11111222' 
TABS,ioos:station:wmo:42044:1,2005-09-01T18:39:00Z,26.1914,-97.0507,0.0,5.461794577,91.4692182,7.32,'11111222,11111222,11111222' 
TABS,ioos:station:wmo:42044:1,2005-09-01T19:09:00Z,26.1914,-97.0507,0.0,5.020219119,83.70981627,6.9,'11111222,11111222,11111222' 
TABS,ioos:station:wmo:42044:1,2005-09-01T19:39:00Z,26.1914,-97.0507,0.0,5.16139516,88.66736234,7.12,'11111222,11111222,11111222' 
TABS,ioos:station:wmo:42044:1,2005-09-01T20:09:00Z,26.1914,-97.0507,0.0,5.316286298,82.43344105,7.34,'11111222,11111222,11111222' 
TABS,ioos:station:wmo:42044:1,2005-09-01T20:39:00Z,26.1914,-97.0507,0.0,4.677232087,86.81296137,6.77,'11111222,11111222,11111222' 
TABS,ioos:station:wmo:42044:1,2005-09-01T21:09:00Z,26.1914,-97.0507,0.0,5.312720584,88.16588153,7.26,'11111222,11111222,11111222' 
TABS,ioos:station:wmo:42044:1,2005-09-01T21:39:00Z,26.1914,-97.0507,0.0,5.77232189,96.06656298,7.31,'11111222,11111222,11111222' 
TABS,ioos:station:wmo:42044:1,2005-09-01T22:09:00Z,26.1914,-97.0507,0.0,6.293846201,104.2574229,8.65,'11111222,11111222,11111222' 
TABS,ioos:station:wmo:42044:1,2005-09-01T22:39:00Z,26.1914,-97.0507,0.0,5.760711762,104.784448,8.02,'11111222,11111222,11111222' 
TABS,ioos:station:wmo:42044:1,2005-09-01T23:09:00Z,26.1914,-97.0507,0.0,8.377690613,138.1452658,11.88,'11111222,11111222,11111222' 
TABS,ioos:station:wmo:42044:1,2005-09-01T23:39:00Z,26.1914,-97.0507,0.0,6.754561422,141.5524524,10.1,'11111222,11111222,11111222' 
TABS,ioos:station:wmo:42044:1,2005-09-02T00:09:00Z,26.1914,-97.0507,0.0,4.110973121,132.9302899,6.57,'11111222,11111222,11111222' 
TABS,ioos:station:wmo:42044:1,2005-09-02T00:39:00Z,26.1914,-97.0507,0.0,4.948383574,114.8563724,7.04,'11111222,11111222,11111222' 
TABS,ioos:station:wmo:42044:1,2005-09-02T01:09:00Z,26.1914,-97.0507,0.0,3.042383934,113.0258591,4.9,'11111222,11111222,11111222' 
TABS,ioos:station:wmo:42044:1,2005-09-02T01:39:00Z,26.1914,-97.0507,0.0,2.179105321,114.6836837,4.65,'11111222,11111222,11111222' 
TABS,ioos:station:wmo:42044:1,2005-09-02T02:09:00Z,26.1914,-97.0507,0.0,2.394535446,122.0310926,5.32,'11111222,11111222,11111222' 
TABS,ioos:station:wmo:42044:1,2005-09-02T02:39:00Z,26.1914,-97.0507,0.0,5.652079263,131.7012101,8.17,'11111222,11111222,11111222' 
TABS,ioos:station:wmo:42044:1,2005-09-02T03:09:00Z,26.1914,-97.0507,0.0,5.955375723,125.6386715,8.02,'11111222,11111222,11111222' 
TABS,ioos:station:wmo:42044:1,2005-09-02T03:39:00Z,26.1914,-97.0507,0.0,5.103430219,131.027829,7.58,'11111222,11111222,11111222' 
TABS,ioos:station:wmo:42044:1,2005-09-02T04:09:00Z,26.1914,-97.0507,0.0,4.620443702,150.7168302,7.04,'11111222,11111222,11111222' 
TABS,ioos:station:wmo:42044:1,2005-09-02T04:39:00Z,26.1914,-97.0507,0.0,4.051913128,169.1894794,5.99,'11111222,11111222,11111222' 
TABS,ioos:station:wmo:42044:1,2005-09-02T05:09:00Z,26.1914,-97.0507,0.0,5.116756785,152.5337909,7.61,'11111222,11111222,11111222' 
TABS,ioos:station:wmo:42044:1,2005-09-02T05:39:00Z,26.1914,-97.0507,0.0,5.862183893,149.6734909,8.26,'11111222,11111222,11111222' 
TABS,ioos:station:wmo:42044:1,2005-09-02T06:09:00Z,26.1914,-97.0507,0.0,5.134685969,149.1896205,7.8,'11111222,11111222,11111222' 
TABS,ioos:station:wmo:42044:1,2005-09-02T06:39:00Z,26.1914,-97.0507,0.0,4.851082353,145.7533347,7.34,'11111222,11111222,11111222' 
TABS,ioos:station:wmo:42044:1,2005-09-02T07:09:00Z,26.1914,-97.0507,0.0,5.000179997,150.9234149,7.1,'11111222,11111222,11111222' 
TABS,ioos:station:wmo:42044:1,2005-09-02T07:39:00Z,26.1914,-97.0507,0.0,4.165405142,157.5602733,5.99,'11111222,11111222,11111222' 
TABS,ioos:station:wmo:42044:1,2005-09-02T08:09:00Z,26.1914,-97.0507,0.0,3.752026119,165.9639998,5.91,'11111222,11111222,11111222' 
TABS,ioos:station:wmo:42044:1,2005-09-02T08:39:00Z,26.1914,-97.0507,0.0,2.584956479,146.6790727,4.85,'11111222,11111222,11111222' 
TABS,ioos:station:wmo:42044:1,2005-09-02T09:09:00Z,26.1914,-97.0507,0.0,2.411182283,152.0535906,4.37,'11111222,11111222,11111222' 
TABS,ioos:station:wmo:42044:1,2005-09-02T09:39:00Z,26.1914,-97.0507,0.0,2.787292593,158.3133667,4.72,'11111222,11111222,11111222' 
TABS,ioos:station:wmo:42044:1,2005-09-02T10:09:00Z,26.1914,-97.0507,0.0,2.619790068,164.9561248,4.25,'11111222,11111222,11111222' 
TABS,ioos:station:wmo:42044:1,2005-09-02T10:39:00Z,26.1914,-97.0507,0.0,2.4989998,163.0155176,4.39,'11111222,11111222,11111222' 
TABS,ioos:station:wmo:42044:1,2005-09-02T11:09:00Z,26.1914,-97.0507,0.0,3.037795253,172.2435571,4.56,'11111222,11111222,11111222' 
TABS,ioos:station:wmo:42044:1,2005-09-02T11:39:00Z,26.1914,-97.0507,0.0,3.552759491,189.8867186,7.74,'11111222,11111222,11111222' 
TABS,ioos:station:wmo:42044:1,2005-09-02T12:09:00Z,26.1914,-97.0507,0.0,6.445936705,215.4654752,11.45,'11111222,11111222,11111222' 
TABS,ioos:station:wmo:42044:1,2005-09-02T12:39:00Z,26.1914,-97.0507,0.0,2.531600284,231.0928626,5.49,'11111222,11111222,11111222' 
TABS,ioos:station:wmo:42044:1,2005-09-02T13:09:00Z,26.1914,-97.0507,0.0,2.226791414,220.6293184,4.08,'11111222,11111222,11111222' 
TABS,ioos:station:wmo:42044:1,2005-09-02T13:39:00Z,26.1914,-97.0507,0.0,2.609463546,134.2239994,4.46,'11111222,11111222,11111222' 
TABS,ioos:station:wmo:42044:1,2005-09-02T14:09:00Z,26.1914,-97.0507,0.0,1.315484702,5.23363895,3.42,'11111222,11111222,11111222' 
TABS,ioos:station:wmo:42044:1,2005-09-02T14:39:00Z,26.1914,-97.0507,0.0,2.163908501,356.5555951,4.64,'11111222,11111222,11111222' 
TABS,ioos:station:wmo:42044:1,2005-09-02T15:09:00Z,26.1914,-97.0507,0.0,3.41063044,339.7583844,5.68,'11111222,11111222,11111222' 
TABS,ioos:station:wmo:42044:1,2005-09-02T15:39:00Z,26.1914,-97.0507,0.0,4.312690575,7.058875372,6.48,'11111222,11111222,11111222' 
TABS,ioos:station:wmo:42044:1,2005-09-02T16:09:00Z,26.1914,-97.0507,0.0,4.306564756,44.34114267,6.74,'11111222,11111222,11111222' 
TABS,ioos:station:wmo:42044:1,2005-09-02T17:09:00Z,26.1914,-97.0507,0.0,4.162030754,88.20967266,6.58,'11111222,11111222,11111222' 
TABS,ioos:station:wmo:42044:1,2005-09-02T17:39:00Z,26.1914,-97.0507,0.0,3.98151981,72.15626743,6.48,'11111222,11111222,11111222' 
TABS,ioos:station:wmo:42044:1,2005-09-02T18:09:00Z,26.1914,-97.0507,0.0,4.808378105,62.36874749,7.11,'11111222,11111222,11111222' 
TABS,ioos:station:wmo:42044:1,2005-09-02T18:39:00Z,26.1914,-97.0507,0.0,5.552341848,49.30883752,7.73,'11111222,11111222,11111222' 
TABS,ioos:station:wmo:42044:1,2005-09-02T19:09:00Z,26.1914,-97.0507,0.0,6.164219334,52.64642844,8.7,'11111222,11111222,11111222' 
TABS,ioos:station:wmo:42044:1,2005-09-02T19:39:00Z,26.1914,-97.0507,0.0,6.100442607,57.5860897,8.23,'11111222,11111222,11111222' 
TABS,ioos:station:wmo:42044:1,2005-09-02T20:09:00Z,26.1914,-97.0507,0.0,6.049280949,60.59545919,8.43,'11111222,11111222,11111222' 
TABS,ioos:station:wmo:42044:1,2005-09-02T20:39:00Z,26.1914,-97.0507,0.0,6.289451486,62.13078905,8.84,'11111222,11111222,11111222' 
TABS,ioos:station:wmo:42044:1,2005-09-02T21:09:00Z,26.1914,-97.0507,0.0,6.063876648,67.19806129,8.39,'11111222,11111222,11111222' 
TABS,ioos:station:wmo:42044:1,2005-09-02T21:39:00Z,26.1914,-97.0507,0.0,5.417056396,71.26364823,7.73,'11111222,11111222,11111222' 
TABS,ioos:station:wmo:42044:1,2005-09-02T22:09:00Z,26.1914,-97.0507,0.0,6.34369766,73.42148787,8.85,'11111222,11111222,11111222' 
TABS,ioos:station:wmo:42044:1,2005-09-02T22:39:00Z,26.1914,-97.0507,0.0,6.740400582,73.71561147,9.74,'11111222,11111222,11111222' 
TABS,ioos:station:wmo:42044:1,2005-09-02T23:09:00Z,26.1914,-97.0507,0.0,6.809478688,74.75925536,9.52,'11111222,11111222,11111222' 
TABS,ioos:station:wmo:42044:1,2005-09-02T23:39:00Z,26.1914,-97.0507,0.0,7.254577865,73.33819779,10.18,'11111222,11111222,11111222' 
TABS,ioos:station:wmo:42044:1,2005-09-03T00:09:00Z,26.1914,-97.0507,0.0,7.252895973,72.83881041,10.12,'11111222,11111222,11111222' 
TABS,ioos:station:wmo:42044:1,2005-09-03T00:39:00Z,26.1914,-97.0507,0.0,6.625443381,70.8809869,10.27,'11111222,11111222,11111222' 
TABS,ioos:station:wmo:42044:1,2005-09-03T01:09:00Z,26.1914,-97.0507,0.0,6.001941353,69.72290716,8.52,'11111222,11111222,11111222' 
TABS,ioos:station:wmo:42044:1,2005-09-03T01:39:00Z,26.1914,-97.0507,0.0,5.47646784,69.81093517,7.51,'11111222,11111222,11111222' 
TABS,ioos:station:wmo:42044:1,2005-09-03T02:09:00Z,26.1914,-97.0507,0.0,5.662552428,88.27920234,7.65,'11111222,11111222,11111222' 
TABS,ioos:station:wmo:42044:1,2005-09-03T02:39:00Z,26.1914,-97.0507,0.0,5.680035211,89.79783469,7.87,'11111222,11111222,11111222' 
TABS,ioos:station:wmo:42044:1,2005-09-03T03:09:00Z,26.1914,-97.0507,0.0,5.65000885,90.10182903,7.75,'11111222,11111222,11111222' 
TABS,ioos:station:wmo:42044:1,2005-09-03T03:39:00Z,26.1914,-97.0507,0.0,5.903388857,104.3191058,8.44,'11111222,11111222,11111222' 
TABS,ioos:station:wmo:42044:1,2005-09-03T04:09:00Z,26.1914,-97.0507,0.0,5.338857556,111.4231355,7.5,'11111222,11111222,11111222' 
TABS,ioos:station:wmo:42044:1,2005-09-03T04:39:00Z,26.1914,-97.0507,0.0,6.343011903,123.8156732,8.68,'11111222,11111222,11111222' 
TABS,ioos:station:wmo:42044:1,2005-09-03T05:09:00Z,26.1914,-97.0507,0.0,5.56752189,130.5569718,7.37,'11111222,11111222,11111222' 
TABS,ioos:station:wmo:42044:1,2005-09-03T05:39:00Z,26.1914,-97.0507,0.0,5.723678887,133.0888096,7.59,'11111222,11111222,11111222' 
TABS,ioos:station:wmo:42044:1,2005-09-03T06:09:00Z,26.1914,-97.0507,0.0,5.007933706,133.5439605,7.22,'11111222,11111222,11111222' 
TABS,ioos:station:wmo:42044:1,2005-09-03T06:39:00Z,26.1914,-97.0507,0.0,4.228675916,131.645115,6.12,'11111222,11111222,11111222' 
TABS,ioos:station:wmo:42044:1,2005-09-03T07:09:00Z,26.1914,-97.0507,0.0,3.712276929,141.123556,6.0,'11111222,11111222,11111222' 
TABS,ioos:station:wmo:42044:1,2005-09-03T07:39:00Z,26.1914,-97.0507,0.0,3.73121964,139.5655674,5.51,'11111222,11111222,11111222' 
TABS,ioos:station:wmo:42044:1,2005-09-03T08:09:00Z,26.1914,-97.0507,0.0,3.533751548,150.3157311,5.51,'11111222,11111222,11111222' 
TABS,ioos:station:wmo:42044:1,2005-09-03T08:39:00Z,26.1914,-97.0507,0.0,3.984181221,143.6768771,5.99,'11111222,11111222,11111222' 
TABS,ioos:station:wmo:42044:1,2005-09-03T09:09:00Z,26.1914,-97.0507,0.0,2.546782284,139.6186267,4.7,'11111222,11111222,11111222' 
TABS,ioos:station:wmo:42044:1,2005-09-03T09:39:00Z,26.1914,-97.0507,0.0,1.854400173,163.7153261,3.28,'11111222,11111222,11111222' 
TABS,ioos:station:wmo:42044:1,2005-09-03T10:09:00Z,26.1914,-97.0507,0.0,1.915097909,172.8009937,3.34,'11111222,11111222,11111222' 
TABS,ioos:station:wmo:42044:1,2005-09-03T10:39:00Z,26.1914,-97.0507,0.0,2.321249663,162.1897557,3.9,'11111222,11111222,11111222' 
TABS,ioos:station:wmo:42044:1,2005-09-03T11:09:00Z,26.1914,-97.0507,0.0,4.842003717,163.8110421,7.37,'11111222,11111222,11111222' 
TABS,ioos:station:wmo:42044:1,2005-09-03T11:39:00Z,26.1914,-97.0507,0.0,2.50002,179.7710291,4.17,'11111222,11111222,11111222' 
TABS,ioos:station:wmo:42044:1,2005-09-03T12:09:00Z,26.1914,-97.0507,0.0,0.934077085,217.6061139,2.55,'11111222,11111222,11111222' 
TABS,ioos:station:wmo:42044:1,2005-09-03T12:39:00Z,26.1914,-97.0507,0.0,0.317647603,331.8212653,2.1,'11111222,11111222,11111222' 
TABS,ioos:station:wmo:42044:1,2005-09-03T13:09:00Z,26.1914,-97.0507,0.0,1.342385936,298.474137,3.24,'11111222,11111222,11111222' 
TABS,ioos:station:wmo:42044:1,2005-09-03T13:39:00Z,26.1914,-97.0507,0.0,0.84646323,308.7654293,2.85,'11111222,11111222,11111222' 
TABS,ioos:station:wmo:42044:1,2005-09-03T14:09:00Z,26.1914,-97.0507,0.0,1.61523992,318.5136368,3.23,'11111222,11111222,11111222' 
TABS,ioos:station:wmo:42044:1,2005-09-03T14:39:00Z,26.1914,-97.0507,0.0,2.986787572,330.5167086,5.03,'11111222,11111222,11111222' 
TABS,ioos:station:wmo:42044:1,2005-09-03T15:09:00Z,26.1914,-97.0507,0.0,3.537484982,333.6521028,5.4,'11111222,11111222,11111222' 
TABS,ioos:station:wmo:42044:1,2005-09-03T15:39:00Z,26.1914,-97.0507,0.0,3.776691674,345.1172693,5.68,'11111222,11111222,11111222' 
TABS,ioos:station:wmo:42044:1,2005-09-03T17:09:00Z,26.1914,-97.0507,0.0,4.635795509,8.059957549,6.23,'11111222,11111222,11111222' 
TABS,ioos:station:wmo:42044:1,2005-09-03T17:39:00Z,26.1914,-97.0507,0.0,5.109804302,12.43127126,8.15,'11111222,11111222,11111222' 
TABS,ioos:station:wmo:42044:1,2005-09-03T18:09:00Z,26.1914,-97.0507,0.0,5.848828943,16.0797079,8.24,'11111222,11111222,11111222' 
TABS,ioos:station:wmo:42044:1,2005-09-03T18:39:00Z,26.1914,-97.0507,0.0,5.182759883,31.26682303,6.84,'11111222,11111222,11111222' 
TABS,ioos:station:wmo:42044:1,2005-09-03T19:09:00Z,26.1914,-97.0507,0.0,5.051702683,41.38833957,7.15,'11111222,11111222,11111222' 
TABS,ioos:station:wmo:42044:1,2005-09-03T19:39:00Z,26.1914,-97.0507,0.0,4.811330377,29.92184943,6.62,'11111222,11111222,11111222' 
TABS,ioos:station:wmo:42044:1,2005-09-03T20:09:00Z,26.1914,-97.0507,0.0,4.47823626,36.28105541,7.02,'11111222,11111222,11111222' 
TABS,ioos:station:wmo:42044:1,2005-09-03T20:39:00Z,26.1914,-97.0507,0.0,4.67453741,55.01768201,6.73,'11111222,11111222,11111222' 
TABS,ioos:station:wmo:42044:1,2005-09-03T21:09:00Z,26.1914,-97.0507,0.0,4.590784247,65.27679734,6.53,'11111222,11111222,11111222' 
TABS,ioos:station:wmo:42044:1,2005-09-03T21:39:00Z,26.1914,-97.0507,0.0,4.639676713,65.14687181,7.15,'11111222,11111222,11111222' 
TABS,ioos:station:wmo:42044:1,2005-09-03T22:09:00Z,26.1914,-97.0507,0.0,4.074923312,96.34059784,6.27,'11111222,11111222,11111222' 
TABS,ioos:station:wmo:42044:1,2005-09-03T22:39:00Z,26.1914,-97.0507,0.0,3.200515583,74.22635279,4.98,'11111222,11111222,11111222' 
TABS,ioos:station:wmo:42044:1,2005-09-03T23:09:00Z,26.1914,-97.0507,0.0,4.612602302,74.27603097,6.9,'11111222,11111222,11111222' 
TABS,ioos:station:wmo:42044:1,2005-09-03T23:39:00Z,26.1914,-97.0507,0.0,5.334416557,81.80873686,7.49,'11111222,11111222,11111222' 
TABS,ioos:station:wmo:42044:1,2005-09-04T00:09:00Z,26.1914,-97.0507,0.0,6.290031796,57.92668236,8.62,'11111222,11111222,11111222' 
TABS,ioos:station:wmo:42044:1,2005-09-04T00:39:00Z,26.1914,-97.0507,0.0,6.180008091,53.22247897,8.45,'11111222,11111222,11111222' 
TABS,ioos:station:wmo:42044:1,2005-09-04T01:09:00Z,26.1914,-97.0507,0.0,5.27856041,67.02908398,7.38,'11111222,11111222,11111222' 
TABS,ioos:station:wmo:42044:1,2005-09-04T01:39:00Z,26.1914,-97.0507,0.0,5.312720584,88.16588153,7.37,'11111222,11111222,11111222' 
TABS,ioos:station:wmo:42044:1,2005-09-04T02:09:00Z,26.1914,-97.0507,0.0,4.570886129,88.87136429,6.91,'11111222,11111222,11111222' 
TABS,ioos:station:wmo:42044:1,2005-09-04T02:39:00Z,26.1914,-97.0507,0.0,5.010878167,93.77645707,7.32,'11111222,11111222,11111222' 
TABS,ioos:station:wmo:42044:1,2005-09-04T03:09:00Z,26.1914,-97.0507,0.0,5.132767285,102.0327786,6.83,'11111222,11111222,11111222' 
TABS,ioos:station:wmo:42044:1,2005-09-04T03:39:00Z,26.1914,-97.0507,0.0,5.100245092,105.6988836,6.85,'11111222,11111222,11111222' 
TABS,ioos:station:wmo:42044:1,2005-09-04T04:09:00Z,26.1914,-97.0507,0.0,4.876269066,108.6582658,6.8,'11111222,11111222,11111222' 
TABS,ioos:station:wmo:42044:1,2005-09-04T04:39:00Z,26.1914,-97.0507,0.0,4.910244393,102.7063887,6.93,'11111222,11111222,11111222' 
TABS,ioos:station:wmo:42044:1,2005-09-04T05:09:00Z,26.1914,-97.0507,0.0,4.963154239,114.3965483,6.78,'11111222,11111222,11111222' 
TABS,ioos:station:wmo:42044:1,2005-09-04T05:39:00Z,26.1914,-97.0507,0.0,4.906577218,110.0233871,6.89,'11111222,11111222,11111222' 
TABS,ioos:station:wmo:42044:1,2005-09-04T06:09:00Z,26.1914,-97.0507,0.0,4.932798394,116.3576298,6.85,'11111222,11111222,11111222' 
TABS,ioos:station:wmo:42044:1,2005-09-04T06:39:00Z,26.1914,-97.0507,0.0,4.573160833,119.7607726,6.37,'11111222,11111222,11111222' 
TABS,ioos:station:wmo:42044:1,2005-09-04T07:09:00Z,26.1914,-97.0507,0.0,4.118082078,126.5084871,6.1,'11111222,11111222,11111222' 
TABS,ioos:station:wmo:42044:1,2005-09-04T07:39:00Z,26.1914,-97.0507,0.0,4.136205991,105.2798024,6.73,'11111222,11111222,11111222' 
TABS,ioos:station:wmo:42044:1,2005-09-04T08:09:00Z,26.1914,-97.0507,0.0,4.472862618,128.920208,6.21,'11111222,11111222,11111222' 
TABS,ioos:station:wmo:42044:1,2005-09-04T08:39:00Z,26.1914,-97.0507,0.0,4.483770735,128.4805292,6.4,'11111222,11111222,11111222' 
TABS,ioos:station:wmo:42044:1,2005-09-04T09:09:00Z,26.1914,-97.0507,0.0,3.840117186,126.4226192,6.15,'11111222,11111222,11111222' 
TABS,ioos:station:wmo:42044:1,2005-09-04T09:39:00Z,26.1914,-97.0507,0.0,4.211614892,137.5985038,5.94,'11111222,11111222,11111222' 
TABS,ioos:station:wmo:42044:1,2005-09-04T10:09:00Z,26.1914,-97.0507,0.0,2.716707566,151.1710046,4.5,'11111222,11111222,11111222' 
TABS,ioos:station:wmo:42044:1,2005-09-04T10:39:00Z,26.1914,-97.0507,0.0,4.1035838,140.1411016,5.97,'11111222,11111222,11111222' 
TABS,ioos:station:wmo:42044:1,2005-09-04T11:09:00Z,26.1914,-97.0507,0.0,3.441453181,138.0625956,5.39,'11111222,11111222,11111222' 
TABS,ioos:station:wmo:42044:1,2005-09-04T11:39:00Z,26.1914,-97.0507,0.0,2.934910561,134.0339748,4.89,'11111222,11111222,11111222' 
TABS,ioos:station:wmo:42044:1,2005-09-04T12:09:00Z,26.1914,-97.0507,0.0,2.806439025,106.5627426,4.3,'11111222,11111222,11111222' 
TABS,ioos:station:wmo:42044:1,2005-09-04T12:39:00Z,26.1914,-97.0507,0.0,2.308679276,107.6505039,3.85,'11111222,11111222,11111222' 
TABS,ioos:station:wmo:42044:1,2005-09-04T13:09:00Z,26.1914,-97.0507,0.0,6.649751875,93.10377298,12.5,'11111222,11111222,11111222' 
TABS,ioos:station:wmo:42044:1,2005-09-04T13:39:00Z,26.1914,-97.0507,0.0,1.70082333,318.8139607,4.36,'11111222,11111222,11111222' 
TABS,ioos:station:wmo:42044:1,2005-09-04T14:09:00Z,26.1914,-97.0507,0.0,1.120580207,212.9811309,3.05,'11111222,11111222,11111222' 
TABS,ioos:station:wmo:42044:1,2005-09-04T14:39:00Z,26.1914,-97.0507,0.0,2.974373884,262.6599635,4.98,'11111222,11111222,11111222' 
TABS,ioos:station:wmo:42044:1,2005-09-04T15:09:00Z,26.1914,-97.0507,0.0,3.147983482,326.6631615,5.21,'11111222,11111222,11111222' 
TABS,ioos:station:wmo:42044:1,2005-09-04T15:39:00Z,26.1914,-97.0507,0.0,4.20461651,322.1487975,6.22,'11111222,11111222,11111222' 
TABS,ioos:station:wmo:42044:1,2005-09-04T16:09:00Z,26.1914,-97.0507,0.0,3.275026717,321.6952619,6.02,'11111222,11111222,11111222' 
TABS,ioos:station:wmo:42044:1,2005-09-04T17:09:00Z,26.1914,-97.0507,0.0,3.981770963,43.88037362,6.24,'11111222,11111222,11111222' 
TABS,ioos:station:wmo:42044:1,2005-09-04T17:39:00Z,26.1914,-97.0507,0.0,3.816595341,33.02357987,5.53,'11111222,11111222,11111222' 
TABS,ioos:station:wmo:42044:1,2005-09-04T18:09:00Z,26.1914,-97.0507,0.0,4.149662637,74.05422047,6.12,'11111222,11111222,11111222' 
TABS,ioos:station:wmo:42044:1,2005-09-04T18:39:00Z,26.1914,-97.0507,0.0,4.381529413,81.20372737,6.62,'11111222,11111222,11111222' 
TABS,ioos:station:wmo:42044:1,2005-09-04T19:09:00Z,26.1914,-97.0507,0.0,5.303517701,80.44847615,7.8,'11111222,11111222,11111222' 
TABS,ioos:station:wmo:42044:1,2005-09-04T19:39:00Z,26.1914,-97.0507,0.0,5.473728163,78.29963348,8.4,'11111222,11111222,11111222' 
TABS,ioos:station:wmo:42044:1,2005-09-04T20:09:00Z,26.1914,-97.0507,0.0,4.746756788,71.06845434,7.06,'11111222,11111222,11111222' 
TABS,ioos:station:wmo:42044:1,2005-09-04T20:39:00Z,26.1914,-97.0507,0.0,4.035145598,71.20545773,6.0,'11111222,11111222,11111222' 